Regional Weather Roundup
Issued by NWS

Home | Current Version | Previous Version | Text Only | Print | Product List | Glossary On
Versions: 1 2 3 4 5 6 7 8 9 10 11 12 13 14 15 16 17 18 19 20 21 22 23 24 25 26 27 28 29 30 31 32 33 34 35 36 37 38 39 40 41 42 43 44 45 46 47 48 49 50
000
ASUS45 KPSR 201010
RWRAZ

ARIZONA HOURLY REGIONAL WEATHER ROUNDUP
NATIONAL WEATHER SERVICE PHOENIX AZ
300 AM MST MON FEB 20 2017

NOTE: FAIR INDICATES FEW OR NO CLOUDS BELOW 12,000 FEET WITH NO
SIGNIFICANT WEATHER AND/OR OBSTRUCTIONS TO VISIBILITY.

AZZ001>003-036-201100-
NORTHWEST ARIZONA

CITY           SKY/WX    TMP DP  RH WIND       PRES   REMARKS
BULLHEAD CITY  PTCLDY    55  50  82 CALM      30.11R
KINGMAN        CLEAR     40  35  83 SE9       30.13S WCI  34
$$

AZZ004>008-015-016-018-201100-
NORTH CENTRAL ARIZONA

CITY           SKY/WX    TMP DP  RH WIND       PRES   REMARKS
GRAND CANYON   FOG       35  35 100 SW8       30.15R VSB 3/4 WCI  29
WILLIAMS       CLOUDY    36  30  80 CALM      30.16R
PRESCOTT       CLOUDY    42  40  92 SE5       30.15S
FLAGSTAFF      CLOUDY    33  29  85 W7        30.14S WCI  27
PAYSON         CLOUDY    41  39  93 CALM      30.18S
PAGE           CLEAR     40  31  70 SE6       30.10R
$$

AZZ009>014-017-201100-
NORTHEAST ARIZONA

CITY           SKY/WX    TMP DP  RH WIND       PRES   REMARKS
WINSLOW        CLEAR     33  31  92 S5        30.13R WCI  29
SAINT JOHNS    CLOUDY    39  34  82 W12       30.13R WCI  32
WINDOW ROCK    CLOUDY    37  32  82 W10       30.12R WCI  30
SHOW LOW       CLOUDY    34  32  93 SW6       30.16R WCI  29
$$

AZZ023-201100-
GREATER PHOENIX AREA

CITY           SKY/WX    TMP DP  RH WIND       PRES   REMARKS
PHOENIX        PTCLDY    52  50  93 E5        30.13R
BUCKEYE        PTCLDY    50  50 100 NE3       30.14S
LUKE AFB       CLEAR     50 N/A N/A CALM      30.12F
DEER VALLEY    CLOUDY    53  52  96 CALM      30.13S
SCOTTSDALE     PTCLDY    52  50  93 CALM      30.12S
MESA-GATEWAY   CLEAR     48  46  93 E6        30.15R
$$

AZZ027-028-201100-
SOUTHWEST MARICOPA COUNTY AND PINAL COUNTY

CITY           SKY/WX    TMP DP  RH WIND       PRES   REMARKS
CASA GRANDE    NOT AVBL
GILA BEND      FAIR      50  49  96 SE8       30.13R
$$

AZZ503-504-507>509-201100-
SOUTHEAST ARIZONA

CITY           SKY/WX    TMP DP  RH WIND       PRES   REMARKS
TUCSON         CLOUDY    51  49  92 E3        30.17S
DAVIS-MONTHAN  MOCLDY    50  50 100 SE5       30.16S
NOGALES        PTCLDY    45  42  89 CALM      30.16S
SIERRA VISTA   CLOUDY    43  39  87 W7        30.18R
DOUGLAS        CLOUDY    40  38  93 E3        30.16S
SAFFORD        MOCLDY    46  42  86 W8        30.13R
$$

AZZ020-021-025-026-031-201100-
SOUTHWEST ARIZONA

CITY           SKY/WX    TMP DP  RH WIND       PRES   REMARKS
YUMA           CLEAR     56  52  86 S3        30.11S
$$

CAZ031-033-041-043-047-048-061-201100-
SOUTHERN CALIFORNIA

CITY           SKY/WX    TMP DP  RH WIND       PRES   REMARKS
DOWNTOWN L.A.  LGT RAIN  55  52  89 E5        30.18S FOG
L.A. AIRPORT   LGT RAIN  53  52  96 E6        30.18S FOG
SAN DIEGO      CLOUDY    57  45  64 SE5       30.20F
BURBANK        CLOUDY    51  49  92 SE6       30.17R
ONTARIO        CLOUDY    51  47  86 CALM      30.18R
RIVERSIDE      CLOUDY    52  50  93 N5        30.18R
PALM SPRINGS   PTCLDY    58  48  69 NW7       30.10F
EL CENTRO NAS  MOCLDY    56  43  61 SW6       30.12R
IMPERIAL       CLEAR     56  45  66 W3        30.10R
BLYTHE         CLEAR     54  51  90 S10       30.10S
NEEDLES        MOCLDY    56  50  80 CALM      30.09S
$$

NVZ020-UTZ003-201100-
SOUTHERN NEVADA-UTAH

CITY           SKY/WX    TMP DP  RH WIND       PRES   REMARKS
LAS VEGAS      CLOUDY    56  44  64 S7        30.04S
SALT LAKE CITY PTCLDY    44  36  73 S15       29.94R
$$

NMZ009-TXZ055-201100-
NEW MEXICO-WEST TEXAS

CITY           SKY/WX    TMP DP  RH WIND       PRES   REMARKS
ALBUQUERQUE    MOCLDY    42  33  70 CALM      30.03S
EL PASO        PTCLDY    48  34  58 W15       30.06R
$$


........................KEY........................
SKY/WX - SKY CONDITION/WEATHER
TMP    - TEMPERATURE IN FAHRENHEIT
DP     - DEW POINT IN FAHRENHEIT
RH     - RELATIVE HUMIDITY IN PERCENT
WIND   - DIRECTION AND SPEED IN MILES PER HOUR (MPH)
VRB    - VARIABLE WIND DIRECTION
PRES   - MEAN SEA LEVEL PRESSURE IN INCHES OF MERCURY
         F - FALLING PRESSURE   R - RISING PRESSURE
         S - STEADY PRESSURE
VSB    - VISIBILITY IN MILES
HX     - HEAT INDEX IN FAHRENHEIT
WCI    - WIND CHILL INDEX IN FAHRENHEIT
TC     - TEMPERATURE IN CELSIUS WHICH IS ALSO KNOWN AS
         TEMPERATURE IN CENTIGRADE
AFB    - AIR FORCE BASE
         LUKE AFB IS LUKE AIR FORCE BASE
         DAVIS-MONTHAN IS DAVIS-MONTHAN AIR FORCE BASE
NAS    - NAVAL AIR STATION
         EL CENTRO NAS IS EL CENTRO NAVAL AIR STATION
N/A    - NOT AVAILABLE




USA.gov is the U.S. government's official web portal to all federal, state and local government web resources and services.